TimeEST,TemperatureF,Dew PointF,Humidity,Sea Level PressureIn,VisibilityMPH,Wind Direction,Wind SpeedMPH,Gust SpeedMPH,PrecipitationIn,Events,Conditions,WindDirDegrees,DateUTC
12:56 AM,22.8,21.9,96,30.24,0.6,NW,3.5,-,N/A,Fog,Light Freezing Fog,310,2014-02-01 05:56:00
1:56 AM,23.9,23.7,99,30.24,0.6,SSW,1.2,-,N/A,Fog,Light Freezing Fog,210,2014-02-01 06:56:00
2:56 AM,22.8,22.1,97,30.23,0.6,NW,9.2,-,N/A,Fog,Light Freezing Fog,320,2014-02-01 07:56:00
3:07 AM,23.0,23.0,100,30.23,1.1,West,1.2,-,N/A,Fog,Light Freezing Fog,270,2014-02-01 08:07:00
3:12 AM,23.0,23.0,100,30.23,2.8,NW,2.3,-,N/A,,Scattered Clouds,310,2014-02-01 08:12:00
3:18 AM,23.0,23.0,100,30.23,6.0,West,2.3,-,N/A,,Scattered Clouds,280,2014-02-01 08:18:00
3:42 AM,23.0,23.0,100,30.23,4.0,Calm,Calm,-,N/A,,Clear,0,2014-02-01 08:42:00
3:48 AM,23.0,21.2,93,30.23,6.0,Calm,Calm,-,N/A,,Clear,0,2014-02-01 08:48:00
3:56 AM,22.5,21.7,97,30.23,12.0,SE,2.3,-,N/A,,Clear,140,2014-02-01 08:56:00
4:56 AM,20.3,19.6,97,30.24,12.0,NNW,6.9,-,N/A,,Clear,330,2014-02-01 09:56:00
5:56 AM,21.4,20.1,95,30.25,12.0,North,4.6,-,N/A,,Clear,350,2014-02-01 10:56:00
6:56 AM,20.8,20.8,100,30.26,12.0,Calm,Calm,-,N/A,,Clear,0,2014-02-01 11:56:00
7:56 AM,25.3,25.3,100,30.28,12.0,NNW,3.5,-,N/A,,Clear,330,2014-02-01 12:56:00
8:56 AM,39.2,39.2,100,30.29,12.0,NNE,3.5,-,N/A,,Clear,20,2014-02-01 13:56:00
9:56 AM,49.3,34.9,58,30.28,12.0,NE,6.9,-,N/A,,Clear,50,2014-02-01 14:56:00
10:56 AM,55.4,33.4,43,30.26,12.0,ENE,8.1,-,N/A,,Partly Cloudy,70,2014-02-01 15:56:00
11:56 AM,57.9,28.4,32,30.23,12.0,ESE,10.4,-,N/A,,Clear,110,2014-02-01 16:56:00
12:30 PM,59.0,32.0,36,30.22,12.0,ESE,8.1,-,N/A,,Mostly Cloudy,110,2014-02-01 17:30:00
12:56 PM,56.7,37.0,48,30.21,12.0,ESE,5.8,-,N/A,,Mostly Cloudy,110,2014-02-01 17:56:00
1:56 PM,57.9,41.0,53,30.18,12.0,East,6.9,-,N/A,,Mostly Cloudy,100,2014-02-01 18:56:00
2:56 PM,57.9,41.5,54,30.16,12.0,ENE,5.8,-,N/A,,Overcast,70,2014-02-01 19:56:00
3:56 PM,56.8,43.3,61,30.16,12.0,NE,4.6,-,N/A,,Overcast,40,2014-02-01 20:56:00
4:13 PM,55.4,42.8,63,30.16,12.0,North,4.6,-,N/A,Rain,Light Rain,10,2014-02-01 21:13:00
4:56 PM,50.9,48.0,90,30.16,12.0,North,5.8,-,0.02,Rain,Light Rain Showers,360,2014-02-01 21:56:00
5:21 PM,48.2,46.4,93,30.16,12.0,WNW,5.8,-,N/A,,Overcast,300,2014-02-01 22:21:00
5:56 PM,46.9,45.5,95,30.15,12.0,North,2.3,-,0.01,,Overcast,360,2014-02-01 22:56:00
6:42 PM,46.4,46.4,100,30.14,12.0,Calm,Calm,-,N/A,,Mostly Cloudy,0,2014-02-01 23:42:00
6:48 PM,46.4,46.4,100,30.14,12.0,East,2.3,-,N/A,,Mostly Cloudy,80,2014-02-01 23:48:00
6:56 PM,46.8,45.7,96,30.14,12.0,East,1.2,-,N/A,,Mostly Cloudy,90,2014-02-01 23:56:00
7:13 PM,46.4,46.4,100,30.13,12.0,East,1.2,-,N/A,Rain,Light Rain,100,2014-02-02 00:13:00
7:19 PM,46.4,46.4,100,30.13,12.0,Calm,Calm,-,N/A,Rain,Light Rain Showers,0,2014-02-02 00:19:00
7:30 PM,46.4,46.4,100,30.13,12.0,East,1.2,-,N/A,,Mostly Cloudy,80,2014-02-02 00:30:00
7:53 PM,46.4,46.4,100,30.12,12.0,East,3.5,-,N/A,,Mostly Cloudy,80,2014-02-02 00:53:00
7:56 PM,46.9,45.9,96,30.12,12.0,East,3.5,-,N/A,,Mostly Cloudy,80,2014-02-02 00:56:00
8:13 PM,46.4,46.4,100,30.11,12.0,ENE,3.5,-,N/A,,Mostly Cloudy,70,2014-02-02 01:13:00
8:17 PM,46.4,46.4,100,30.11,12.0,ENE,2.3,-,N/A,Rain,Light Rain,60,2014-02-02 01:17:00
8:22 PM,46.4,46.4,100,30.10,4.0,East,2.3,-,N/A,Rain,Light Rain,80,2014-02-02 01:22:00
8:34 PM,46.4,46.4,100,30.10,10.0,Variable,1.2,-,N/A,Rain,Light Rain Showers,0,2014-02-02 01:34:00
8:56 PM,46.9,46.0,97,30.10,12.0,ESE,1.2,-,0.04,Rain,Light Rain Showers,120,2014-02-02 01:56:00
9:14 PM,48.2,46.4,93,30.10,12.0,NW,3.5,-,N/A,,Overcast,320,2014-02-02 02:14:00
9:32 PM,48.2,46.4,93,30.10,12.0,NW,2.3,-,N/A,,Overcast,310,2014-02-02 02:32:00
9:56 PM,47.7,46.8,97,30.09,11.0,WNW,3.5,-,N/A,,Overcast,290,2014-02-02 02:56:00
10:30 PM,48.2,46.4,93,30.09,3.0,WNW,5.8,-,N/A,,Overcast,290,2014-02-02 03:30:00
10:36 PM,48.2,46.4,93,30.09,1.8,West,3.5,-,N/A,,Overcast,280,2014-02-02 03:36:00
10:48 PM,48.2,46.4,93,30.09,0.9,West,3.5,-,N/A,Fog,Fog,260,2014-02-02 03:48:00
10:56 PM,47.3,46.4,97,30.09,0.6,West,4.6,-,N/A,Fog,Fog,270,2014-02-02 03:56:00
11:56 PM,43.7,43.2,98,30.09,0.5,WNW,4.6,-,N/A,Fog,Fog,300,2014-02-02 04:56:00